Location: El Álamo
(40.2307°N, 3.9945°W)
Time: 01:31:05
(UTC+00:00)

CZ-4B R/B - Pass Details

Date: 19 May 2025
Orbit: 807 x 881 km, 98.9° (Epoch: 24 June)

Event Time Altitude Azimuth Distance (km) Brightness Sun altitude
Exits shadow 21:02:14 - 187° (S) 2,902 5.6 -15.3°
Reaches altitude 10° 21:03:21 10° 191° (S) 2,489 5.3 -15.4°
Maximum altitude 21:08:33 41° 261° (W) 1,206 4.3 -16.1°
Drops below altitude 10° 21:13:42 10° 331° (NNW) 2,459 6.8 -16.8°
Sets 21:16:11 0° 339° (NNW) 3,386 7.6 -17.1°
